TimeCST,TemperatureF,Dew PointF,Humidity,Sea Level PressureIn,VisibilityMPH,Wind Direction,Wind SpeedMPH,Gust SpeedMPH,PrecipitationIn,Events,Conditions,WindDirDegrees,DateUTC
12:15 AM,6.8,5.0,92,30.15,10.0,Calm,Calm,-,N/A,,Clear,0,2013-03-03 06:15:00
12:35 AM,8.6,5.0,85,30.14,10.0,Calm,Calm,-,N/A,,Clear,0,2013-03-03 06:35:00
12:55 AM,5.0,3.2,92,30.14,10.0,Calm,Calm,-,N/A,,Clear,0,2013-03-03 06:55:00
1:15 AM,5.0,3.2,92,30.14,10.0,Calm,Calm,-,N/A,,Clear,0,2013-03-03 07:15:00
1:35 AM,6.8,5.0,92,30.13,10.0,Calm,Calm,-,N/A,,Scattered Clouds,0,2013-03-03 07:35:00
1:55 AM,3.2,1.4,92,30.13,10.0,Calm,Calm,-,N/A,,Scattered Clouds,0,2013-03-03 07:55:00
2:15 AM,5.0,3.2,92,30.12,10.0,Calm,Calm,-,N/A,,Clear,0,2013-03-03 08:15:00
2:35 AM,3.2,1.4,92,30.11,10.0,Calm,Calm,-,N/A,,Clear,0,2013-03-03 08:35:00
2:55 AM,3.2,1.4,92,30.11,10.0,Calm,Calm,-,N/A,,Clear,0,2013-03-03 08:55:00
3:15 AM,6.8,3.2,85,30.11,10.0,Calm,Calm,-,N/A,,Clear,0,2013-03-03 09:15:00
3:35 AM,6.8,5.0,92,30.11,10.0,Calm,Calm,-,N/A,,Clear,0,2013-03-03 09:35:00
3:55 AM,5.0,5.0,100,30.11,10.0,Calm,Calm,-,N/A,,Clear,0,2013-03-03 09:55:00
4:15 AM,8.6,6.8,92,30.11,10.0,West,3.5,-,N/A,,Clear,280,2013-03-03 10:15:00
4:35 AM,8.6,5.0,85,30.12,10.0,WNW,3.5,-,N/A,,Clear,290,2013-03-03 10:35:00
5:45 AM,6.8,3.2,85,30.13,10.0,WNW,4.6,-,N/A,,Clear,290,2013-03-03 11:45:00
6:45 AM,5.0,3.2,92,30.13,10.0,WNW,4.6,-,N/A,,Clear,290,2013-03-03 12:45:00
7:45 AM,8.6,6.8,92,30.14,10.0,WNW,4.6,-,N/A,,Clear,300,2013-03-03 13:45:00
8:45 AM,12.2,8.6,85,30.13,10.0,NNW,4.6,-,N/A,,Clear,340,2013-03-03 14:45:00
9:45 AM,21.2,8.6,58,30.13,10.0,NNW,4.6,-,N/A,,Clear,330,2013-03-03 15:45:00
10:45 AM,23.0,8.6,54,30.12,10.0,NNW,6.9,-,N/A,,Clear,340,2013-03-03 16:45:00
11:45 AM,24.8,8.6,50,30.11,10.0,North,9.2,-,N/A,,Clear,350,2013-03-03 17:45:00
12:45 PM,24.8,5.0,43,30.09,10.0,NNW,6.9,-,N/A,,Clear,330,2013-03-03 18:45:00
1:45 PM,24.8,3.2,40,30.08,10.0,NW,6.9,-,N/A,,Clear,320,2013-03-03 19:45:00
2:45 PM,24.8,1.4,36,30.07,10.0,NW,5.8,-,N/A,,Clear,310,2013-03-03 20:45:00
3:45 PM,24.8,-2.2,31,30.08,10.0,NW,6.9,-,N/A,,Clear,310,2013-03-03 21:45:00
4:45 PM,24.8,-5.8,26,30.08,10.0,WNW,4.6,-,N/A,,Clear,290,2013-03-03 22:45:00
5:45 PM,21.2,-2.2,36,30.09,10.0,NW,4.6,-,N/A,,Clear,320,2013-03-03 23:45:00
6:45 PM,17.6,-2.2,42,30.10,10.0,NW,2.3,-,N/A,,Clear,310,2013-03-04 00:45:00
7:52 PM,17.6,1.4,49,30.10,10.0,Calm,Calm,-,N/A,,Clear,0,2013-03-04 01:52:00
8:15 PM,15.8,3.2,58,30.10,10.0,Calm,Calm,-,N/A,,Clear,0,2013-03-04 02:15:00
8:35 PM,12.2,1.4,62,30.09,10.0,Calm,Calm,-,N/A,,Clear,0,2013-03-04 02:35:00
8:45 PM,10.4,1.4,67,30.10,10.0,Calm,Calm,-,N/A,,Clear,0,2013-03-04 02:45:00
9:15 PM,12.2,3.2,67,30.10,10.0,Calm,Calm,-,N/A,,Clear,0,2013-03-04 03:15:00
9:35 PM,12.2,3.2,67,30.11,10.0,Calm,Calm,-,N/A,,Clear,0,2013-03-04 03:35:00
9:55 PM,8.6,1.4,73,30.11,10.0,Calm,Calm,-,N/A,,Clear,0,2013-03-04 03:55:00
10:15 PM,10.4,3.2,73,30.11,10.0,Calm,Calm,-,N/A,,Clear,0,2013-03-04 04:15:00
10:35 PM,8.6,3.2,79,30.11,10.0,Calm,Calm,-,N/A,,Clear,0,2013-03-04 04:35:00
10:55 PM,6.8,1.4,79,30.10,10.0,Calm,Calm,-,N/A,,Clear,0,2013-03-04 04:55:00
11:15 PM,6.8,3.2,85,30.10,10.0,Calm,Calm,-,N/A,,Clear,0,2013-03-04 05:15:00
11:35 PM,8.6,3.2,79,30.10,10.0,Calm,Calm,-,N/A,,Clear,0,2013-03-04 05:35:00
11:55 PM,5.0,1.4,85,30.10,10.0,Calm,Calm,-,N/A,,Clear,0,2013-03-04 05:55:00